Location: M?digepalle
(16.1753°N, 80.3496°E)
Time: 08:34:47
(UTC+00:00)

CCE 1 Rocket - Pass Details

Date: 29 October 2020
Orbit: 543 x 3984 km, 28.9° (Epoch: 27 November)

Event Time Altitude Azimuth Distance (km) Brightness Sun altitude
Rises 12:25:19 0° 301° (WNW) 2,709 7.6 -4.5°
Reaches altitude 10° 12:27:18 10° 307° (NW) 1,893 6.7 -5.0°
Maximum altitude 12:31:19 54° 26° (NNE) 870 4.1 -5.9°
Drops below altitude 10° 12:37:31 10° 103° (ESE) 2,894 6.4 -7.3°
Enters shadow 12:39:26 - 105° (ESE) 3,650 6.9 -7.8°
